Location: Taukkyan
(23.1052°N, 94.0030°E)
Time: 11:45:10
(UTC+00:00)

COSMOS 2428 - Pass Details

Date: 06 July 2020
Orbit: 844 x 859 km, 70.9° (Epoch: 15 August)

Event Time Altitude Azimuth Distance (km) Brightness Sun altitude
Exits shadow 14:56:15 56° 224° (SW) 997 2.9 -27.9°
Maximum altitude 14:57:25 74° 288° (WNW) 877 2.8 -28.1°
Drops below altitude 10° 15:03:03 10° 13° (NNE) 2,462 5.5 -29.1°
Sets 15:05:31 0° 16° (NNE) 3,399 6.2 -29.4°
